GW6592 Weather Reports


time (UTC)temp
F
wind
direction
speed
knots
gust
knots
rain 1hr
in
rain 24hr
in
rain mn
in
humidity
%
barometer
mb
20260503184922 63 66 2.6 2.6 0.00 0.00 0.00 48 1014.9
20260503184419 64 214 0.9 5.2 0.00 0.00 0.00 41 1015.1
20260503183916 64 73 0.9 4.3 0.00 0.00 0.00 46 1015.1
20260503183412 63 68 1.7 1.7 0.00 0.00 0.00 44 1015.4
20260503182910 63 91 2.6 2.6 0.00 0.00 0.00 45 1015.9
20260503182409 63 86 1.7 3.5 0.00 0.00 0.00 45 1015.9
20260503181905 62 92 0.9 3.5 0.00 0.00 0.00 49 1015.6
20260503181402 62 86 0.0 4.3 0.00 0.00 0.00 42 1016.1
20260503180858 62 88 1.7 3.5 0.00 0.00 0.00 46 1016.1
20260503180356 60 261 0.0 4.3 0.00 0.00 0.00 41 1016.3
20260503175853 60 66 1.7 4.3 0.00 0.00 0.00 43 1016.3
20260503175351 60 80 2.6 3.5 0.00 0.00 0.00 44 1016.2
20260503174846 60 63 3.5 3.5 0.00 0.00 0.00 45 1016.6
20260503174345 60 344 1.7 3.5 0.00 0.00 0.00 43 1016.3
20260503173839 59 76 1.7 3.5 0.00 0.00 0.00 43 1016.6
20260503173336 60 44 3.5 3.5 0.00 0.00 0.00 43 1016.7
20260503172833 60 78 1.7 1.7 0.00 0.00 0.00 43 1016.9
20260503172331 60 99 1.7 6.1 0.00 0.00 0.00 41 1016.8
20260503171826 61 279 0.0 7.8 0.00 0.00 0.00 41 1016.9
20260503171323 60 73 0.9 3.5 0.00 0.00 0.00 43 1016.9
20260503170821 61 53 0.9 5.2 0.00 0.00 0.00 40 1016.9
20260503170317 60 87 1.7 2.6 0.00 0.00 0.00 45 1016.9
20260503150709 55 72 2.6 3.5 0.00 0.00 0.00 45 1018.1
20260503150206 55 56 3.5 6.1 0.00 0.00 0.00 45 1018.1
20260503140130 51 324 1.7 4.3 0.00 0.00 0.00 49 1018.7
20260503131059 50 65 0.9 3.5 0.00 0.00 0.00 53 1018.6
20260503130556 50 84 1.7 3.5 0.00 0.00 0.00 55 1018.8
20260503110447 37 100 0.9 2.6 0.00 0.00 0.00 79 1018.1
20260503090338 37 79 1.7 1.7 0.00 0.00 0.00 81 1017.7
20260503081306 38 99 1.7 1.7 0.00 0.00 0.00 79 1017.9
20260503080802 38 88 1.7 1.7 0.00 0.00 0.00 79 1017.9
20260503080259 38 94 1.7 1.7 0.00 0.00 0.00 79 1017.9
20260503072735 37 95 1.7 1.7 0.00 0.00 0.00 82 1017.8
20260503072232 37 89 0.9 1.7 0.00 0.00 0.00 82 1017.8
20260503071728 37 93 1.7 1.7 0.00 0.00 0.00 82 1017.9
20260503071226 37 95 1.7 1.7 0.00 0.00 0.00 82 1017.9
20260503070722 38 89 1.7 1.7 0.00 0.00 0.00 82 1017.9
20260503070220 38 100 1.7 1.7 0.00 0.00 0.00 81 1017.8
20260503060145 38 97 1.7 1.7 0.00 0.00 0.00 79 1018.6
20260503054632 38 92 1.7 1.7 0.00 0.00 0.00 79 1018.5
20260503054129 38 92 1.7 1.7 0.00 0.00 0.00 79 1018.0
20260503053627 39 94 1.7 1.7 0.00 0.00 0.00 79 1018.4
20260503053126 39 93 1.7 1.7 0.00 0.00 0.00 78 1018.5
20260503052621 39 96 1.7 1.7 0.00 0.00 0.00 78 1018.4
20260503052118 39 93 1.7 1.7 0.00 0.00 0.00 78 1018.5
20260503051613 39 89 1.7 1.7 0.00 0.00 0.00 77 1018.5
20260503051111 39 92 1.7 1.7 0.00 0.00 0.00 77 1018.7
20260503050608 39 88 1.7 1.7 0.00 0.00 0.00 78 1018.5
20260503050104 39 94 1.7 1.7 0.00 0.00 0.00 78 1018.6
20260503045601 39 86 1.7 1.7 0.00 0.00 0.00 77 1018.6
20260503045059 39 89 1.7 1.7 0.00 0.00 0.00 77 1018.6
20260503044555 39 92 1.7 1.7 0.00 0.00 0.00 77 1018.8
20260503044053 39 93 1.7 1.7 0.00 0.00 0.00 77 1018.6
20260503043549 39 95 1.7 1.7 0.00 0.00 0.00 77 1018.7
20260503043046 39 98 1.7 1.7 0.00 0.00 0.00 76 1018.6
20260503042543 40 89 1.7 1.7 0.00 0.00 0.00 76 1018.6
20260503042039 40 93 1.7 1.7 0.00 0.00 0.00 76 1018.5
20260503041536 40 88 1.7 1.7 0.00 0.00 0.00 76 1018.5
20260503041034 40 95 1.7 1.7 0.00 0.00 0.00 76 1018.4
20260503040531 40 93 1.7 1.7 0.00 0.00 0.00 76 1018.6
20260503040028 40 89 1.7 1.7 0.00 0.00 0.00 75 1018.5
20260503035525 40 89 1.7 1.7 0.00 0.00 0.00 75 1018.6
20260503035022 40 89 1.7 1.7 0.00 0.00 0.00 74 1018.6
20260503034519 40 92 1.7 1.7 0.00 0.00 0.00 73 1018.5
20260503034016 41 93 1.7 1.7 0.00 0.00 0.00 73 1018.6
20260503033513 41 87 1.7 1.7 0.00 0.00 0.00 73 1018.6
20260503033011 41 89 1.7 1.7 0.00 0.00 0.00 72 1018.6
20260503032510 41 93 1.7 1.7 0.00 0.00 0.00 71 1018.7
20260503032008 41 89 0.9 1.7 0.00 0.00 0.00 73 1018.7
20260503031505 41 93 1.7 1.7 0.00 0.00 0.00 71 1018.8
20260503031001 41 91 1.7 1.7 0.00 0.00 0.00 70 1018.7
20260503030457 42 93 1.7 1.7 0.00 0.00 0.00 70 1018.6
20260503025955 42 97 1.7 1.7 0.00 0.00 0.00 70 1018.7
20260503025451 42 97 1.7 1.7 0.00 0.00 0.00 69 1018.8
20260503024949 42 93 1.7 1.7 0.00 0.00 0.00 68 1018.9
20260503024445 42 95 1.7 1.7 0.00 0.00 0.00 67 1018.8
20260503023943 42 95 1.7 1.7 0.00 0.00 0.00 65 1018.6
20260503023440 43 89 1.7 1.7 0.00 0.00 0.00 65 1018.7
20260503022936 43 87 1.7 1.7 0.00 0.00 0.00 63 1018.8
20260503022431 43 97 1.7 1.7 0.00 0.00 0.00 63 1018.5
20260503021927 43 89 1.7 1.7 0.00 0.00 0.00 63 1018.5
20260503021424 44 98 1.7 1.7 0.00 0.00 0.00 60 1018.5
20260503020921 44 93 1.7 1.7 0.00 0.00 0.00 59 1018.4
20260503020419 44 94 1.7 1.7 0.00 0.00 0.00 61 1018.3
20260503015915 44 93 1.7 1.7 0.00 0.00 0.00 60 1018.4
20260503015412 44 93 1.7 1.7 0.00 0.00 0.00 59 1018.4
20260503014908 45 89 1.7 1.7 0.00 0.00 0.00 61 1018.1
20260503014406 45 94 1.7 1.7 0.00 0.00 0.00 56 1018.1
20260503013903 45 93 0.9 1.7 0.00 0.00 0.00 57 1018.0
20260503013400 46 93 1.7 1.7 0.00 0.00 0.00 53 1018.1
20260503012857 46 93 1.7 1.7 0.00 0.00 0.00 53 1018.0
20260503012355 46 95 1.7 1.7 0.00 0.00 0.00 54 1018.1
20260503011851 47 92 1.7 1.7 0.00 0.00 0.00 50 1018.0
20260503011348 47 96 0.9 1.7 0.00 0.00 0.00 53 1017.8
20260503010844 47 94 1.7 1.7 0.00 0.00 0.00 52 1017.9
20260503010342 48 89 1.7 1.7 0.00 0.00 0.00 46 1017.9
20260503005838 48 95 1.7 1.7 0.00 0.00 0.00 46 1018.1
20260503005336 49 92 1.7 1.7 0.00 0.00 0.00 47 1018.0
20260503004832 49 93 1.7 1.7 0.00 0.00 0.00 43 1018.1
20260503004330 49 83 0.9 1.7 0.00 0.00 0.00 45 1017.9
20260503003827 50 105 0.9 1.7 0.00 0.00 0.00 41 1017.9
20260503003324 50 89 0.9 1.7 0.00 0.00 0.00 41 1017.8
20260503002821 50 93 2.6 2.6 0.00 0.00 0.00 41 1017.8
20260503002318 51 101 0.9 2.6 0.00 0.00 0.00 41 1017.8
20260503001814 51 92 1.7 1.7 0.00 0.00 0.00 38 1017.7
20260503001311 51 119 0.0 2.6 0.00 0.00 0.00 38 1017.7
20260503000809 51 79 1.7 2.6 0.00 0.00 0.00 37 1017.8
20260503000306 51 99 0.0 1.7 0.00 0.00 0.00 36 1017.6
20260502235802 51 101 1.7 2.6 0.00 0.00 0.00 36 1017.6
20260502235300 51 81 2.6 2.6 0.00 0.00 0.00 38 1017.7
20260502234756 52 47 1.7 1.7 0.00 0.00 0.00 36 1017.5
20260502234253 52 71 1.7 2.6 0.00 0.00 0.00 36 1017.7
20260502233749 53 133 0.0 2.6 0.00 0.00 0.00 35 1017.5
20260502233247 55 48 0.0 4.3 0.00 0.00 0.00 35 1017.5
20260502232742 58 26 0.0 3.5 0.00 0.00 0.00 31 1017.6
20260502232239 59 87 0.0 2.6 0.00 0.00 0.00 31 1017.4
20260502231736 58 76 0.0 2.6 0.00 0.00 0.00 30 1017.6
20260502231234 58 76 0.0 2.6 0.00 0.00 0.00 32 1017.4
20260502230732 56 55 0.0 1.7 0.00 0.00 0.00 34 1017.8
20260502230230 53 89 0.0 1.7 0.00 0.00 0.00 38 1017.4
20260502225726 54 240 0.9 1.7 0.00 0.00 0.00 34 1017.6
20260502225223 54 75 0.9 1.7 0.00 0.00 0.00 38 1017.6
20260502224719 52 94 0.9 2.6 0.00 0.00 0.00 36 1017.5
20260502224216 53 132 0.0 3.5 0.00 0.00 0.00 36 1017.6
20260502223714 53 106 0.9 2.6 0.00 0.00 0.00 35 1017.6
20260502223212 53 84 1.7 1.7 0.00 0.00 0.00 35 1017.9
20260502222709 54 106 0.9 2.6 0.00 0.00 0.00 34 1017.6
20260502222206 57 0 1.7 3.5 0.00 0.00 0.00 32 1017.6
20260502221702 59 58 0.0 1.7 0.00 0.00 0.00 30 1017.5
20260502221159 59 83 0.9 1.7 0.00 0.00 0.00 33 1017.6
20260502220655 56 74 2.6 2.6 0.00 0.00 0.00 34 1017.7
20260502220151 53 96 0.9 1.7 0.00 0.00 0.00 37 1017.6
20260502215648 54 50 1.7 3.5 0.00 0.00 0.00 37 1017.8
20260502215145 55 120 0.9 2.6 0.00 0.00 0.00 36 1017.7
20260502214642 53 98 0.9 2.6 0.00 0.00 0.00 42 1017.5
20260502214139 53 304 0.0 2.6 0.00 0.00 0.00 36 1017.5
20260502213637 54 350 6.1 6.1 0.00 0.00 0.00 34 1017.6
20260502213134 56 302 0.0 1.7 0.00 0.00 0.00 37 1017.6
20260502212633 54 126 0.0 1.7 0.00 0.00 0.00 37 1017.5
20260502212131 54 40 1.7 2.6 0.00 0.00 0.00 35 1017.5
20260502211625 54 140 0.0 2.6 0.00 0.00 0.00 35 1017.4
20260502211123 55 268 1.7 2.6 0.00 0.00 0.00 34 1017.6
20260502210621 56 94 1.7 4.3 0.00 0.00 0.00 35 1017.4
20260502210117 56 58 0.9 3.5 0.00 0.00 0.00 35 1017.4
20260502205614 56 268 2.6 3.5 0.00 0.00 0.00 32 1017.4
20260502205111 56 309 0.0 2.6 0.00 0.00 0.00 32 1017.3
20260502204608 55 59 0.0 3.5 0.00 0.00 0.00 34 1017.5
20260502204105 56 71 1.7 3.5 0.00 0.00 0.00 39 1017.4
20260502203602 56 247 1.7 2.6 0.00 0.00 0.00 35 1017.4
20260502203100 55 67 0.9 1.7 0.00 0.00 0.00 38 1017.4
20260502202555 54 68 0.9 2.6 0.00 0.00 0.00 38 1017.4
20260502202054 53 73 0.9 3.5 0.00 0.00 0.00 38 1017.5
20260502201549 53 238 0.0 3.5 0.00 0.00 0.00 36 1017.6
20260502201046 55 103 2.6 2.6 0.00 0.00 0.00 36 1017.5
20260502200542 55 118 0.9 1.7 0.00 0.00 0.00 40 1017.5
20260502200040 55 84 2.6 4.3 0.00 0.00 0.00 37 1017.7
20260502195537 54 182 0.0 1.7 0.00 0.00 0.00 38 1017.6
20260502195033 54 180 0.9 2.6 0.00 0.00 0.00 39 1017.9
20260502194530 54 96 0.0 2.6 0.00 0.00 0.00 43 1017.7
20260502194026 54 209 2.6 2.6 0.00 0.00 0.00 41 1017.9
20260502193524 54 100 1.7 3.5 0.00 0.00 0.00 40 1018.0
20260502193020 54 67 0.9 2.6 0.00 0.00 0.00 39 1017.9
20260502192516 53 293 1.7 5.2 0.00 0.00 0.00 38 1017.8
20260502192014 52 117 0.9 1.7 0.00 0.00 0.00 38 1018.0
20260502191510 52 176 1.7 3.5 0.00 0.00 0.00 39 1018.0
20260502191008 52 69 0.0 2.6 0.00 0.00 0.00 42 1017.8
20260502190505 52 73 1.7 2.6 0.00 0.00 0.00 43 1018.0
20260502190001 53 265 0.9 2.6 0.00 0.00 0.00 37 1018.1
20260502185457 54 18 0.9 3.5 0.00 0.00 0.00 38 1018.1